Time,TemperatureF,DewpointF,PressureIn,WindDirection,WindDirectionDegrees,WindSpeedMPH,WindSpeedGustMPH,Humidity,HourlyPrecipIn,Conditions,Clouds,dailyrainin,SoftwareType,DateUTC
2013-01-20 00:03:00,1.7,-4.1,30.20,WNW,293,3.0,5.0,76,0.00,,SCT110,0.00,VWS V14.01,2013-01-20 06:03:00,
2013-01-20 00:08:00,1.7,-4.1,30.20,WNW,290,3.0,6.0,76,0.00,,SCT110,0.00,VWS V14.01,2013-01-20 06:08:00,
2013-01-20 00:13:00,1.6,-3.9,30.20,WNW,290,2.0,6.0,77,0.00,,SCT110,0.00,VWS V14.01,2013-01-20 06:13:00,
2013-01-20 00:18:00,1.5,-4.0,30.21,WNW,300,3.0,6.0,77,0.00,,SCT110,0.00,VWS V14.01,2013-01-20 06:18:00,
2013-01-20 00:23:00,1.5,-4.0,30.22,WNW,284,3.0,6.0,77,0.00,,SCT110,0.00,VWS V14.01,2013-01-20 06:23:00,
2013-01-20 00:28:00,1.4,-4.1,30.22,WNW,295,5.0,7.0,77,0.00,,SCT110,0.00,VWS V14.01,2013-01-20 06:28:00,
2013-01-20 00:33:00,1.4,-4.1,30.22,WNW,284,5.0,8.0,77,0.00,,SCT110,0.00,VWS V14.01,2013-01-20 06:33:00,
2013-01-20 00:38:00,1.3,-4.2,30.23,West,277,6.0,8.0,77,0.00,,SCT110,0.00,VWS V14.01,2013-01-20 06:38:00,
2013-01-20 00:43:00,1.3,-4.2,30.23,WNW,294,4.0,8.0,77,0.00,,SCT110,0.00,VWS V14.01,2013-01-20 06:43:00,
2013-01-20 00:48:00,1.3,-4.2,30.24,West,278,3.0,8.0,77,0.00,,SCT110,0.00,VWS V14.01,2013-01-20 06:48:00,
2013-01-20 00:53:00,1.2,-4.3,30.24,WNW,293,5.0,8.0,77,0.00,,SCT110,0.00,VWS V14.01,2013-01-20 06:53:00,
2013-01-20 00:58:00,1.1,-4.4,30.24,WNW,284,4.0,8.0,77,0.00,,SCT110,0.00,VWS V14.01,2013-01-20 06:58:00,
2013-01-20 01:03:00,1.0,-4.5,30.24,WNW,284,3.0,10.0,77,0.00,,SCT110,0.00,VWS V14.01,2013-01-20 07:03:00,
2013-01-20 01:08:00,0.9,-4.6,30.24,West,271,5.0,10.0,77,0.00,,SCT110,0.00,VWS V14.01,2013-01-20 07:08:00,
2013-01-20 01:13:00,0.8,-4.7,30.24,WNW,290,4.0,10.0,77,0.00,,SCT110,0.00,VWS V14.01,2013-01-20 07:13:00,
2013-01-20 01:18:00,0.8,-4.7,30.24,WNW,285,5.0,10.0,77,0.00,,SCT110,0.00,VWS V14.01,2013-01-20 07:18:00,
2013-01-20 01:23:00,0.6,-4.9,30.24,WNW,295,3.0,10.0,77,0.00,,SCT110,0.00,VWS V14.01,2013-01-20 07:23:00,
2013-01-20 01:28:00,0.6,-4.6,30.25,WNW,298,3.0,10.0,78,0.00,,SCT110,0.00,VWS V14.01,2013-01-20 07:28:00,
2013-01-20 01:33:00,0.4,-4.8,30.25,WNW,288,4.0,6.0,78,0.00,,SCT120,0.00,VWS V14.01,2013-01-20 07:33:00,
2013-01-20 01:38:00,0.4,-4.8,30.25,WNW,290,4.0,6.0,78,0.00,,SCT120,0.00,VWS V14.01,2013-01-20 07:38:00,
2013-01-20 01:43:00,0.3,-4.9,30.25,WNW,294,3.0,6.0,78,0.00,,SCT120,0.00,VWS V14.01,2013-01-20 07:43:00,
2013-01-20 01:48:00,0.2,-5.0,30.25,WNW,294,3.0,6.0,78,0.00,,BKN120,0.00,VWS V14.01,2013-01-20 07:48:00,
2013-01-20 01:53:00,0.2,-5.0,30.25,WNW,290,3.0,6.0,78,0.00,,BKN120,0.00,VWS V14.01,2013-01-20 07:53:00,
2013-01-20 01:58:00,0.2,-5.0,30.26,WNW,290,3.0,7.0,78,0.00,,BKN120,0.00,VWS V14.01,2013-01-20 07:58:00,
2013-01-20 02:03:00,0.1,-5.2,30.26,WNW,295,4.0,4.0,78,0.00,,BKN120,0.00,VWS V14.01,2013-01-20 08:03:00,
2013-01-20 02:08:00,-0.1,-5.3,30.26,WNW,291,5.0,5.0,78,0.00,,BKN120,0.00,VWS V14.01,2013-01-20 08:08:00,
2013-01-20 02:13:00,-0.1,-5.3,30.26,WNW,297,2.0,6.0,78,0.00,,BKN120,0.00,VWS V14.01,2013-01-20 08:13:00,
2013-01-20 02:18:00,-0.2,-5.4,30.27,WNW,297,3.0,6.0,78,0.00,,BKN120,0.00,VWS V14.01,2013-01-20 08:18:00,
2013-01-20 02:23:00,-0.4,-5.6,30.27,West,276,3.0,6.0,78,0.00,,BKN120,0.00,VWS V14.01,2013-01-20 08:23:00,
2013-01-20 02:28:00,-0.4,-5.6,30.28,WNW,295,3.0,6.0,78,0.00,,BKN120,0.00,VWS V14.01,2013-01-20 08:28:00,
2013-01-20 02:33:00,-0.5,-5.7,30.29,WNW,290,3.0,6.0,78,0.00,,BKN120,0.00,VWS V14.01,2013-01-20 08:33:00,
2013-01-20 02:38:00,-0.6,-5.8,30.29,West,278,3.0,6.0,78,0.00,,BKN120,0.00,VWS V14.01,2013-01-20 08:38:00,
2013-01-20 02:43:00,-0.6,-5.8,30.30,West,279,2.0,6.0,78,0.00,,BKN120,0.00,VWS V14.01,2013-01-20 08:43:00,
2013-01-20 02:48:00,-0.7,-5.9,30.30,West,279,4.0,7.0,78,0.00,,BKN110,0.00,VWS V14.01,2013-01-20 08:48:00,
2013-01-20 02:53:00,-0.7,-5.9,30.31,WNW,283,4.0,7.0,78,0.00,,BKN110,0.00,VWS V14.01,2013-01-20 08:53:00,
2013-01-20 02:58:00,-0.8,-6.0,30.31,West,274,4.0,9.0,78,0.00,,BKN110,0.00,VWS V14.01,2013-01-20 08:58:00,
2013-01-20 03:03:00,-0.8,-6.0,30.31,WNW,293,3.0,7.0,78,0.00,,BKN110,0.00,VWS V14.01,2013-01-20 09:03:00,
2013-01-20 03:08:00,-0.9,-6.1,30.31,West,281,5.0,7.0,78,0.00,,BKN110,0.00,VWS V14.01,2013-01-20 09:08:00,
2013-01-20 03:13:00,-0.9,-6.1,30.31,WNW,295,5.0,7.0,78,0.00,,BKN110,0.00,VWS V14.01,2013-01-20 09:13:00,
2013-01-20 03:18:00,-1.0,-6.2,30.31,WNW,297,8.0,8.0,78,0.00,,BKN110,0.00,VWS V14.01,2013-01-20 09:18:00,
2013-01-20 03:23:00,-1.1,-6.3,30.31,WNW,290,3.0,8.0,78,0.00,,BKN110,0.00,VWS V14.01,2013-01-20 09:23:00,
2013-01-20 03:28:00,-1.1,-6.3,30.32,WNW,287,4.0,8.0,78,0.00,,BKN110,0.00,VWS V14.01,2013-01-20 09:28:00,
2013-01-20 03:33:00,-1.2,-6.4,30.32,West,281,4.0,7.0,78,0.00,,SCT110,0.00,VWS V14.01,2013-01-20 09:33:00,
2013-01-20 03:38:00,-1.3,-6.5,30.32,WNW,298,4.0,9.0,78,0.00,,SCT110,0.00,VWS V14.01,2013-01-20 09:38:00,
2013-01-20 03:43:00,-1.4,-6.6,30.32,WNW,285,5.0,9.0,78,0.00,,SCT110,0.00,VWS V14.01,2013-01-20 09:43:00,
2013-01-20 03:48:00,-1.5,-6.7,30.32,WNW,295,5.0,9.0,78,0.00,,SCT110,0.00,VWS V14.01,2013-01-20 09:48:00,
2013-01-20 03:53:00,-1.5,-6.7,30.32,WNW,302,5.0,9.0,78,0.00,,SCT110,0.00,VWS V14.01,2013-01-20 09:53:00,
2013-01-20 03:58:00,-1.5,-6.7,30.32,WNW,302,5.0,9.0,78,0.00,,SCT110,0.00,VWS V14.01,2013-01-20 09:58:00,
2013-01-20 04:03:00,-1.6,-6.8,30.31,West,263,5.0,7.0,78,0.00,,SCT110,0.00,VWS V14.01,2013-01-20 10:03:00,
2013-01-20 04:08:00,-1.6,-6.8,30.32,WNW,290,4.0,7.0,78,0.00,,SCT110,0.00,VWS V14.01,2013-01-20 10:08:00,
2013-01-20 04:13:00,-1.7,-6.9,30.32,WNW,295,4.0,7.0,78,0.00,,SCT110,0.00,VWS V14.01,2013-01-20 10:13:00,
2013-01-20 04:18:00,-1.7,-6.9,30.32,West,281,2.0,7.0,78,0.00,,SCT110,0.00,VWS V14.01,2013-01-20 10:18:00,
2013-01-20 04:23:00,-1.8,-7.0,30.32,NW,309,3.0,7.0,78,0.00,,SCT110,0.00,VWS V14.01,2013-01-20 10:23:00,
2013-01-20 04:28:00,-1.8,-7.0,30.32,WNW,301,4.0,7.0,78,0.00,,SCT110,0.00,VWS V14.01,2013-01-20 10:28:00,
2013-01-20 04:33:00,-1.9,-7.1,30.32,WNW,300,5.0,6.0,78,0.00,,CLR,0.00,VWS V14.01,2013-01-20 10:33:00,
2013-01-20 04:38:00,-1.9,-7.1,30.32,WNW,301,4.0,6.0,78,0.00,,CLR,0.00,VWS V14.01,2013-01-20 10:38:00,
2013-01-20 04:43:00,-1.9,-7.1,30.32,West,279,2.0,6.0,78,0.00,,CLR,0.00,VWS V14.01,2013-01-20 10:43:00,
2013-01-20 04:48:00,-1.9,-7.1,30.32,WNW,287,2.0,6.0,78,0.00,,CLR,0.00,VWS V14.01,2013-01-20 10:48:00,
2013-01-20 04:53:00,-2.0,-7.2,30.32,WNW,287,2.0,6.0,78,0.00,,CLR,0.00,VWS V14.01,2013-01-20 10:53:00,
2013-01-20 04:58:00,-2.0,-7.2,30.32,WNW,285,3.0,6.0,78,0.00,,CLR,0.00,VWS V14.01,2013-01-20 10:58:00,
2013-01-20 05:03:00,-2.0,-7.2,30.33,WNW,292,2.0,5.0,78,0.00,,CLR,0.00,VWS V14.01,2013-01-20 11:03:00,
2013-01-20 05:08:00,-2.0,-7.2,30.34,WNW,295,4.0,6.0,78,0.00,,CLR,0.00,VWS V14.01,2013-01-20 11:08:00,
2013-01-20 05:13:00,-2.1,-7.3,30.34,WNW,284,3.0,7.0,78,0.00,,CLR,0.00,VWS V14.01,2013-01-20 11:13:00,
2013-01-20 05:18:00,-2.1,-7.3,30.34,West,271,5.0,7.0,78,0.00,,CLR,0.00,VWS V14.01,2013-01-20 11:18:00,
2013-01-20 05:23:00,-2.2,-7.4,30.34,WNW,298,4.0,7.0,78,0.00,,CLR,0.00,VWS V14.01,2013-01-20 11:23:00,
2013-01-20 05:28:00,-2.3,-7.5,30.35,WNW,284,4.0,7.0,78,0.00,,CLR,0.00,VWS V14.01,2013-01-20 11:28:00,
2013-01-20 05:33:00,-2.4,-7.6,30.34,WNW,295,3.0,9.0,78,0.00,,SCT100,0.00,VWS V14.01,2013-01-20 11:33:00,
2013-01-20 05:38:00,-2.5,-7.7,30.34,WNW,300,4.0,9.0,78,0.00,,SCT100,0.00,VWS V14.01,2013-01-20 11:38:00,
2013-01-20 05:43:00,-2.6,-7.8,30.34,West,281,2.0,9.0,78,0.00,,SCT100,0.00,VWS V14.01,2013-01-20 11:43:00,
2013-01-20 05:48:00,-2.6,-7.8,30.34,WNW,295,2.0,9.0,78,0.00,,SCT100,0.00,VWS V14.01,2013-01-20 11:48:00,
2013-01-20 05:53:00,-2.7,-7.8,30.34,WNW,298,4.0,9.0,78,0.00,,CLR,0.00,VWS V14.01,2013-01-20 11:53:00,
2013-01-20 05:58:00,-2.7,-7.8,30.34,WNW,298,1.0,9.0,78,0.00,,CLR,0.00,VWS V14.01,2013-01-20 11:58:00,
2013-01-20 06:03:00,-2.8,-7.9,30.34,WNW,301,2.0,5.0,78,0.00,,CLR,0.00,VWS V14.01,2013-01-20 12:03:00,
2013-01-20 06:08:00,-2.8,-7.9,30.34,WNW,302,1.0,5.0,78,0.00,,CLR,0.00,VWS V14.01,2013-01-20 12:08:00,
2013-01-20 06:13:00,-2.9,-8.0,30.34,WNW,284,2.0,5.0,78,0.00,,CLR,0.00,VWS V14.01,2013-01-20 12:13:00,
2013-01-20 06:18:00,-2.9,-8.0,30.34,WNW,298,1.0,5.0,78,0.00,,CLR,0.00,VWS V14.01,2013-01-20 12:18:00,
2013-01-20 06:23:00,-2.9,-8.0,30.34,WNW,298,2.0,5.0,78,0.00,,CLR,0.00,VWS V14.01,2013-01-20 12:23:00,
2013-01-20 06:28:00,-2.9,-8.0,30.35,WNW,294,2.0,5.0,78,0.00,,CLR,0.00,VWS V14.01,2013-01-20 12:28:00,
2013-01-20 06:33:00,-3.0,-8.1,30.35,NW,305,2.0,3.0,78,0.00,,CLR,0.00,VWS V14.01,2013-01-20 12:33:00,
2013-01-20 06:38:00,-3.0,-8.1,30.35,WNW,300,1.0,3.0,78,0.00,,CLR,0.00,VWS V14.01,2013-01-20 12:38:00,
2013-01-20 06:43:00,-3.1,-8.2,30.35,WNW,291,1.0,3.0,78,0.00,,CLR,0.00,VWS V14.01,2013-01-20 12:43:00,
2013-01-20 06:48:00,-3.2,-8.3,30.36,WNW,298,1.0,3.0,78,0.00,,CLR,0.00,VWS V14.01,2013-01-20 12:48:00,
2013-01-20 06:53:00,-3.2,-8.3,30.36,WNW,293,1.0,3.0,78,0.00,,SCT110,0.00,VWS V14.01,2013-01-20 12:53:00,
2013-01-20 06:58:00,-3.3,-8.4,30.36,WNW,298,2.0,3.0,78,0.00,,SCT110,0.00,VWS V14.01,2013-01-20 12:58:00,
2013-01-20 07:03:00,-3.4,-8.5,30.36,WNW,298,1.0,2.0,78,0.00,,SCT110,0.00,VWS V14.01,2013-01-20 13:03:00,
2013-01-20 07:08:00,-3.6,-8.7,30.36,WNW,287,1.0,2.0,78,0.00,,SCT110,0.00,VWS V14.01,2013-01-20 13:08:00,
2013-01-20 07:13:00,-3.7,-8.8,30.36,WNW,285,1.0,3.0,78,0.00,,SCT110,0.00,VWS V14.01,2013-01-20 13:13:00,
2013-01-20 07:18:00,-3.7,-8.6,30.36,WNW,294,1.0,3.0,79,0.00,,SCT110,0.00,VWS V14.01,2013-01-20 13:18:00,
2013-01-20 07:23:00,-3.8,-8.7,30.36,West,277,2.0,3.0,79,0.00,,SCT110,0.00,VWS V14.01,2013-01-20 13:23:00,
2013-01-20 07:28:00,-3.9,-8.8,30.36,WNW,285,0.0,3.0,79,0.00,,SCT110,0.00,VWS V14.01,2013-01-20 13:28:00,
2013-01-20 07:33:00,-4.1,-8.9,30.36,WNW,293,1.0,1.0,79,0.00,,SCT120,0.00,VWS V14.01,2013-01-20 13:33:00,
2013-01-20 07:38:00,-4.1,-8.9,30.36,WNW,291,0.0,1.0,79,0.00,,SCT120,0.00,VWS V14.01,2013-01-20 13:38:00,
2013-01-20 07:43:00,-4.2,-9.1,30.36,WNW,288,1.0,1.0,79,0.00,,SCT120,0.00,VWS V14.01,2013-01-20 13:43:00,
2013-01-20 07:48:00,-4.3,-9.1,30.36,West,281,2.0,3.0,79,0.00,,CLR,0.00,VWS V14.01,2013-01-20 13:48:00,
2013-01-20 07:53:00,-4.3,-9.1,30.36,WNW,287,1.0,3.0,79,0.00,,CLR,0.00,VWS V14.01,2013-01-20 13:53:00,
2013-01-20 07:58:00,-4.2,-9.1,30.37,West,274,3.0,4.0,79,0.00,,CLR,0.00,VWS V14.01,2013-01-20 13:58:00,
2013-01-20 08:03:00,-4.2,-9.1,30.37,West,279,2.0,4.0,79,0.00,,CLR,0.00,VWS V14.01,2013-01-20 14:03:00,
2013-01-20 08:08:00,-4.2,-9.1,30.37,WNW,285,1.0,4.0,79,0.00,,CLR,0.00,VWS V14.01,2013-01-20 14:08:00,
2013-01-20 08:13:00,-4.1,-8.9,30.38,West,276,1.0,4.0,79,0.00,,CLR,0.00,VWS V14.01,2013-01-20 14:13:00,
2013-01-20 08:18:00,-4.0,-8.9,30.38,West,280,1.0,4.0,79,0.00,,CLR,0.00,VWS V14.01,2013-01-20 14:18:00,
2013-01-20 08:23:00,-3.9,-8.8,30.38,WNW,285,2.0,4.0,79,0.00,,CLR,0.00,VWS V14.01,2013-01-20 14:23:00,
2013-01-20 08:28:00,-3.8,-8.7,30.38,WNW,291,1.0,6.0,79,0.00,,CLR,0.00,VWS V14.01,2013-01-20 14:28:00,
2013-01-20 08:33:00,-3.7,-8.6,30.38,WNW,283,5.0,5.0,79,0.00,,CLR,0.00,VWS V14.01,2013-01-20 14:33:00,
2013-01-20 08:38:00,-3.7,-8.8,30.38,WNW,294,1.0,5.0,78,0.00,,CLR,0.00,VWS V14.01,2013-01-20 14:38:00,
2013-01-20 08:43:00,-3.7,-8.8,30.38,WNW,287,2.0,5.0,78,0.00,,CLR,0.00,VWS V14.01,2013-01-20 14:43:00,
2013-01-20 08:48:00,-3.6,-8.7,30.38,WNW,291,2.0,5.0,78,0.00,,CLR,0.00,VWS V14.01,2013-01-20 14:48:00,
2013-01-20 08:53:00,-3.5,-8.6,30.39,WNW,295,2.0,5.0,78,0.00,,CLR,0.00,VWS V14.01,2013-01-20 14:53:00,
2013-01-20 08:58:00,-3.4,-8.5,30.39,WNW,284,7.0,7.0,78,0.00,,CLR,0.00,VWS V14.01,2013-01-20 14:58:00,
2013-01-20 09:03:00,-3.3,-8.7,30.39,NW,305,4.0,7.0,77,0.00,,CLR,0.00,VWS V14.01,2013-01-20 15:03:00,
2013-01-20 09:08:00,-3.2,-8.6,30.40,West,279,5.0,8.0,77,0.00,,CLR,0.00,VWS V14.01,2013-01-20 15:08:00,
2013-01-20 09:13:00,-3.0,-8.4,30.41,WNW,284,3.0,8.0,77,0.00,,CLR,0.00,VWS V14.01,2013-01-20 15:13:00,
2013-01-20 09:18:00,-2.9,-8.3,30.41,WNW,284,4.0,8.0,77,0.00,,CLR,0.00,VWS V14.01,2013-01-20 15:18:00,
2013-01-20 09:23:00,-2.9,-8.6,30.41,WNW,298,1.0,8.0,76,0.00,,CLR,0.00,VWS V14.01,2013-01-20 15:23:00,
2013-01-20 09:28:00,-2.7,-8.4,30.41,WNW,284,5.0,8.0,76,0.00,,CLR,0.00,VWS V14.01,2013-01-20 15:28:00,
2013-01-20 09:33:00,-2.8,-8.5,30.42,WNW,293,5.0,10.0,76,0.00,,CLR,0.00,VWS V14.01,2013-01-20 15:33:00,
2013-01-20 09:38:00,-2.7,-8.4,30.42,WNW,290,5.0,10.0,76,0.00,,CLR,0.00,VWS V14.01,2013-01-20 15:38:00,
2013-01-20 09:43:00,-2.6,-8.3,30.42,WNW,302,4.0,10.0,76,0.00,,CLR,0.00,VWS V14.01,2013-01-20 15:43:00,
2013-01-20 09:48:00,-2.6,-8.6,30.42,WNW,290,3.0,10.0,75,0.00,,BKN110,0.00,VWS V14.01,2013-01-20 15:48:00,
2013-01-20 09:53:00,-2.6,-8.6,30.42,NW,308,2.0,10.0,75,0.00,,BKN110,0.00,VWS V14.01,2013-01-20 15:53:00,
2013-01-20 09:58:00,-2.5,-8.2,30.42,West,278,3.0,10.0,76,0.00,,BKN110,0.00,VWS V14.01,2013-01-20 15:58:00,
2013-01-20 10:03:00,-2.2,-7.9,30.42,WNW,285,2.0,5.0,76,0.00,,BKN110,0.00,VWS V14.01,2013-01-20 16:03:00,
2013-01-20 10:08:00,-2.0,-7.7,30.42,WNW,302,3.0,6.0,76,0.00,,BKN110,0.00,VWS V14.01,2013-01-20 16:08:00,
2013-01-20 10:13:00,-1.9,-7.9,30.42,WNW,297,3.0,6.0,75,0.00,,BKN110,0.00,VWS V14.01,2013-01-20 16:13:00,
2013-01-20 10:18:00,-2.0,-8.0,30.42,West,281,4.0,8.0,75,0.00,,BKN110,0.00,VWS V14.01,2013-01-20 16:18:00,
2013-01-20 10:23:00,-1.9,-7.9,30.43,WNW,285,3.0,8.0,75,0.00,,BKN110,0.00,VWS V14.01,2013-01-20 16:23:00,
2013-01-20 10:28:00,-1.8,-7.8,30.43,WNW,293,5.0,10.0,75,0.00,,BKN110,0.00,VWS V14.01,2013-01-20 16:28:00,
2013-01-20 10:33:00,-1.6,-7.8,30.43,West,277,8.0,10.0,74,0.00,,OVC120,0.00,VWS V14.01,2013-01-20 16:33:00,
2013-01-20 10:38:00,-1.4,-7.4,30.43,West,277,6.0,11.0,75,0.00,,OVC120,0.00,VWS V14.01,2013-01-20 16:38:00,
2013-01-20 10:43:00,-1.2,-7.2,30.43,West,276,5.0,11.0,75,0.00,,OVC120,0.00,VWS V14.01,2013-01-20 16:43:00,
2013-01-20 10:48:00,-1.3,-7.6,30.43,West,275,4.0,12.0,74,0.00,,OVC095,0.00,VWS V14.01,2013-01-20 16:48:00,
2013-01-20 10:53:00,-1.2,-7.7,30.42,West,278,8.0,12.0,73,0.00,,OVC095,0.00,VWS V14.01,2013-01-20 16:53:00,
2013-01-20 10:58:00,-1.1,-7.7,30.42,West,273,3.0,12.0,73,0.00,,OVC095,0.00,VWS V14.01,2013-01-20 16:58:00,
2013-01-20 11:03:00,-0.9,-7.4,30.42,West,272,7.0,9.0,73,0.00,,OVC095,0.00,VWS V14.01,2013-01-20 17:03:00,
2013-01-20 11:08:00,-0.8,-7.4,30.42,West,281,3.0,9.0,73,0.00,,OVC095,0.00,VWS V14.01,2013-01-20 17:08:00,
2013-01-20 11:13:00,-0.5,-7.3,30.42,West,281,5.0,9.0,72,0.00,,OVC095,0.00,VWS V14.01,2013-01-20 17:13:00,
2013-01-20 11:18:00,-0.3,-7.2,30.42,WNW,285,4.0,9.0,72,0.00,,OVC095,0.00,VWS V14.01,2013-01-20 17:18:00,
2013-01-20 11:23:00,-0.2,-7.1,30.42,WNW,285,6.0,10.0,72,0.00,,OVC095,0.00,VWS V14.01,2013-01-20 17:23:00,
2013-01-20 11:28:00,-0.1,-7.2,30.41,WNW,285,4.0,10.0,71,0.00,,OVC095,0.00,VWS V14.01,2013-01-20 17:28:00,
2013-01-20 11:33:00,-0.1,-7.4,30.41,WNW,285,3.0,8.0,70,0.00,,OVC100,0.00,VWS V14.01,2013-01-20 17:33:00,
2013-01-20 11:38:00,0.4,-7.1,30.40,WNW,297,2.0,8.0,70,0.00,,OVC100,0.00,VWS V14.01,2013-01-20 17:38:00,
2013-01-20 11:43:00,0.6,-7.2,30.41,WNW,302,2.0,8.0,69,0.00,,OVC100,0.00,VWS V14.01,2013-01-20 17:43:00,
2013-01-20 11:48:00,1.0,-6.2,30.41,West,267,9.0,9.0,71,0.00,,OVC060,0.00,VWS V14.01,2013-01-20 17:48:00,
2013-01-20 11:53:00,1.1,-6.7,30.41,West,277,4.0,9.0,69,0.00,,OVC060,0.00,VWS V14.01,2013-01-20 17:53:00,
2013-01-20 11:58:00,1.1,-7.0,30.41,West,273,5.0,9.0,68,0.00,,OVC060,0.00,VWS V14.01,2013-01-20 17:58:00,
2013-01-20 12:03:00,1.3,-6.8,30.40,WNW,297,6.0,8.0,68,0.00,,OVC060,0.00,VWS V14.01,2013-01-20 18:03:00,
2013-01-20 12:08:00,1.5,-6.6,30.40,NW,304,4.0,8.0,68,0.00,,OVC060,0.00,VWS V14.01,2013-01-20 18:08:00,
2013-01-20 12:13:00,1.7,-6.7,30.40,WNW,298,6.0,9.0,67,0.00,,OVC060,0.00,VWS V14.01,2013-01-20 18:13:00,
2013-01-20 12:18:00,1.7,-6.7,30.40,WNW,298,6.0,9.0,67,0.00,,OVC060,0.00,VWS V14.01,2013-01-20 18:18:00,
2013-01-20 12:23:00,1.9,-6.2,30.40,WNW,284,10.0,10.0,68,0.00,,OVC060,0.00,VWS V14.01,2013-01-20 18:23:00,
2013-01-20 12:28:00,2.0,-6.4,30.40,NW,309,4.0,10.0,67,0.00,,OVC060,0.00,VWS V14.01,2013-01-20 18:28:00,
2013-01-20 12:33:00,2.3,-5.8,30.39,WNW,283,6.0,8.0,68,0.00,,OVC043,0.00,VWS V14.01,2013-01-20 18:33:00,
2013-01-20 12:38:00,2.4,-6.3,30.39,West,278,4.0,12.0,66,0.00,,OVC043,0.00,VWS V14.01,2013-01-20 18:38:00,
2013-01-20 12:43:00,2.3,-6.4,30.39,WNW,298,4.0,12.0,66,0.00,,OVC043,0.00,VWS V14.01,2013-01-20 18:43:00,
2013-01-20 12:48:00,2.4,-6.7,30.38,WNW,285,4.0,12.0,65,0.00,,OVC100,0.00,VWS V14.01,2013-01-20 18:48:00,
2013-01-20 12:53:00,2.7,-6.1,30.38,WNW,300,3.0,12.0,66,0.00,,OVC100,0.00,VWS V14.01,2013-01-20 18:53:00,
2013-01-20 12:58:00,3.1,-5.4,30.38,West,277,4.0,12.0,67,0.00,,OVC100,0.00,VWS V14.01,2013-01-20 18:58:00,
2013-01-20 13:03:00,3.3,-5.5,30.38,WNW,291,6.0,9.0,66,0.00,,OVC100,0.00,VWS V14.01,2013-01-20 19:03:00,
2013-01-20 13:08:00,2.9,-6.5,30.38,WNW,295,3.0,9.0,64,0.00,,OVC100,0.00,VWS V14.01,2013-01-20 19:08:00,
2013-01-20 13:13:00,2.9,-6.2,30.38,West,262,6.0,9.0,65,0.00,,OVC100,0.00,VWS V14.01,2013-01-20 19:13:00,
2013-01-20 13:18:00,3.0,-6.1,30.38,WNW,301,5.0,9.0,65,0.00,,OVC100,0.00,VWS V14.01,2013-01-20 19:18:00,
2013-01-20 13:23:00,3.0,-5.8,30.37,West,273,5.0,9.0,66,0.00,,OVC100,0.00,VWS V14.01,2013-01-20 19:23:00,
2013-01-20 13:28:00,2.9,-5.9,30.36,West,277,6.0,9.0,66,0.00,,OVC100,0.00,VWS V14.01,2013-01-20 19:28:00,
2013-01-20 13:33:00,3.1,-5.4,30.36,West,278,7.0,10.0,67,0.00,,OVC060,0.00,VWS V14.01,2013-01-20 19:33:00,
2013-01-20 13:38:00,3.3,-5.2,30.36,WSW,256,6.0,10.0,67,0.00,,OVC060,0.00,VWS V14.01,2013-01-20 19:38:00,
2013-01-20 13:43:00,3.5,-5.0,30.36,West,269,5.0,10.0,67,0.00,,OVC060,0.00,VWS V14.01,2013-01-20 19:43:00,
2013-01-20 13:48:00,3.8,-4.7,30.36,West,271,7.0,10.0,67,0.00,,OVC050,0.00,VWS V14.01,2013-01-20 19:48:00,
2013-01-20 13:53:00,3.9,-4.6,30.36,West,277,7.0,10.0,67,0.00,,OVC050,0.00,VWS V14.01,2013-01-20 19:53:00,
2013-01-20 13:58:00,3.8,-4.7,30.35,WNW,295,4.0,10.0,67,0.00,,OVC050,0.00,VWS V14.01,2013-01-20 19:58:00,
2013-01-20 14:03:00,4.0,-4.5,30.35,WNW,287,7.0,8.0,67,0.00,,OVC050,0.00,VWS V14.01,2013-01-20 20:03:00,
2013-01-20 14:08:00,4.2,-4.0,30.35,West,269,6.0,11.0,68,0.00,,OVC050,0.00,VWS V14.01,2013-01-20 20:08:00,
2013-01-20 14:13:00,4.3,-3.9,30.35,WNW,294,4.0,11.0,68,0.00,,OVC050,0.00,VWS V14.01,2013-01-20 20:13:00,
2013-01-20 14:18:00,4.3,-3.9,30.35,WNW,285,4.0,11.0,68,0.00,,OVC050,0.00,VWS V14.01,2013-01-20 20:18:00,
2013-01-20 14:23:00,4.7,-3.2,30.35,WNW,290,3.0,11.0,69,0.00,,OVC050,0.00,VWS V14.01,2013-01-20 20:23:00,
2013-01-20 14:28:00,4.7,-3.5,30.35,WNW,284,3.0,11.0,68,0.00,,OVC050,0.00,VWS V14.01,2013-01-20 20:28:00,
2013-01-20 14:33:00,4.6,-3.6,30.35,WNW,291,4.0,7.0,68,0.00,,OVC080,0.00,VWS V14.01,2013-01-20 20:33:00,
2013-01-20 14:38:00,4.4,-3.8,30.35,NW,311,5.0,7.0,68,0.00,,OVC080,0.00,VWS V14.01,2013-01-20 20:38:00,
2013-01-20 14:43:00,4.3,-4.2,30.35,WNW,298,3.0,7.0,67,0.00,,OVC080,0.00,VWS V14.01,2013-01-20 20:43:00,
2013-01-20 14:48:00,4.4,-3.8,30.34,WNW,295,8.0,8.0,68,0.00,,OVC070,0.00,VWS V14.01,2013-01-20 20:48:00,
2013-01-20 14:53:00,4.6,-3.3,30.34,WNW,286,3.0,8.0,69,0.00,,OVC070,0.00,VWS V14.01,2013-01-20 20:53:00,
2013-01-20 14:58:00,4.6,-3.6,30.35,WNW,293,4.0,9.0,68,0.00,,OVC070,0.00,VWS V14.01,2013-01-20 20:58:00,
2013-01-20 15:03:00,4.7,-3.2,30.35,WNW,289,4.0,8.0,69,0.00,,OVC070,0.00,VWS V14.01,2013-01-20 21:03:00,
2013-01-20 15:08:00,4.5,-3.4,30.35,West,276,5.0,9.0,69,0.00,,OVC070,0.00,VWS V14.01,2013-01-20 21:08:00,
2013-01-20 15:13:00,4.6,-3.0,30.35,WNW,285,5.0,10.0,70,0.00,,OVC070,0.00,VWS V14.01,2013-01-20 21:13:00,
2013-01-20 15:18:00,4.6,-2.7,30.35,West,281,4.0,11.0,71,0.00,,OVC070,0.00,VWS V14.01,2013-01-20 21:18:00,
2013-01-20 15:23:00,4.7,-2.6,30.35,WNW,301,5.0,11.0,71,0.00,,OVC070,0.00,VWS V14.01,2013-01-20 21:23:00,
2013-01-20 15:28:00,4.6,-2.4,30.35,WNW,297,8.0,12.0,72,0.00,,OVC070,0.00,VWS V14.01,2013-01-20 21:28:00,
2013-01-20 15:33:00,4.6,-2.1,30.35,West,281,4.0,12.0,73,0.00,,OVC060,0.00,VWS V14.01,2013-01-20 21:33:00,
2013-01-20 15:38:00,4.6,-2.1,30.35,West,274,12.0,12.0,73,0.00,,OVC060,0.00,VWS V14.01,2013-01-20 21:38:00,
2013-01-20 15:43:00,4.6,-1.9,30.35,WNW,283,3.0,12.0,74,0.00,,OVC060,0.00,VWS V14.01,2013-01-20 21:43:00,
2013-01-20 15:48:00,4.6,-1.9,30.35,West,277,6.0,12.0,74,0.00,,OVC060,0.00,VWS V14.01,2013-01-20 21:48:00,
2013-01-20 15:53:00,4.6,-2.1,30.35,West,276,7.0,12.0,73,0.00,,OVC060,0.00,VWS V14.01,2013-01-20 21:53:00,
2013-01-20 15:58:00,4.5,-2.5,30.34,WNW,287,7.0,9.0,72,0.00,,OVC060,0.00,VWS V14.01,2013-01-20 21:58:00,
2013-01-20 16:03:00,4.4,-2.9,30.34,WNW,285,7.0,16.0,71,0.00,,OVC060,0.00,VWS V14.01,2013-01-20 22:03:00,
2013-01-20 16:08:00,4.2,-3.1,30.34,West,263,10.0,16.0,71,0.00,,OVC060,0.00,VWS V14.01,2013-01-20 22:08:00,
2013-01-20 16:13:00,4.1,-2.0,30.34,WNW,287,6.0,16.0,75,0.00,,OVC060,0.00,VWS V14.01,2013-01-20 22:13:00,
2013-01-20 16:18:00,4.1,-2.6,30.34,West,280,6.0,16.0,73,0.00,,OVC060,0.00,VWS V14.01,2013-01-20 22:18:00,
2013-01-20 16:23:00,4.3,-3.0,30.34,WNW,285,5.0,16.0,71,0.00,,OVC060,0.00,VWS V14.01,2013-01-20 22:23:00,
2013-01-20 16:28:00,4.2,-2.8,30.34,West,264,5.0,5.0,72,0.00,,OVC060,0.00,VWS V14.01,2013-01-20 22:28:00,
2013-01-20 16:33:00,4.0,-3.0,30.34,WNW,290,5.0,7.0,72,0.00,,OVC050,0.00,VWS V14.01,2013-01-20 22:33:00,
2013-01-20 16:38:00,3.9,-3.1,30.34,West,281,4.0,10.0,72,0.00,,OVC050,0.00,VWS V14.01,2013-01-20 22:38:00,
2013-01-20 16:43:00,3.7,-3.3,30.34,West,264,4.0,10.0,72,0.00,,OVC050,0.00,VWS V14.01,2013-01-20 22:43:00,
2013-01-20 16:48:00,3.7,-3.3,30.34,WNW,284,4.0,10.0,72,0.00,,OVC050,0.00,VWS V14.01,2013-01-20 22:48:00,
2013-01-20 16:53:00,3.5,-3.8,30.34,WNW,290,2.0,10.0,71,0.00,,OVC050,0.00,VWS V14.01,2013-01-20 22:53:00,
2013-01-20 16:58:00,3.4,-3.6,30.34,WNW,283,3.0,5.0,72,0.00,,OVC050,0.00,VWS V14.01,2013-01-20 22:58:00,
2013-01-20 17:03:00,3.3,-3.4,30.34,WNW,288,4.0,8.0,73,0.00,,OVC050,0.00,VWS V14.01,2013-01-20 23:03:00,
2013-01-20 17:08:00,3.2,-3.5,30.33,WNW,282,2.0,9.0,73,0.00,,OVC050,0.00,VWS V14.01,2013-01-20 23:08:00,
2013-01-20 17:13:00,3.1,-3.3,30.33,WNW,284,2.0,9.0,74,0.00,,OVC050,0.00,VWS V14.01,2013-01-20 23:13:00,
2013-01-20 17:18:00,3.0,-3.4,30.33,WNW,286,3.0,9.0,74,0.00,,OVC050,0.00,VWS V14.01,2013-01-20 23:18:00,
2013-01-20 17:23:00,3.0,-3.4,30.33,WNW,288,2.0,9.0,74,0.00,,OVC050,0.00,VWS V14.01,2013-01-20 23:23:00,
2013-01-20 17:28:00,2.9,-3.5,30.33,West,267,3.0,3.0,74,0.00,,OVC050,0.00,VWS V14.01,2013-01-20 23:28:00,
2013-01-20 17:33:00,2.9,-3.5,30.33,WNW,293,6.0,9.0,74,0.00,,OVC036,0.00,VWS V14.01,2013-01-20 23:33:00,
2013-01-20 17:38:00,2.9,-3.5,30.33,WNW,284,6.0,9.0,74,0.00,,OVC036,0.00,VWS V14.01,2013-01-20 23:38:00,
2013-01-20 17:43:00,2.8,-3.6,30.33,West,274,2.0,9.0,74,0.00,,OVC036,0.00,VWS V14.01,2013-01-20 23:43:00,
2013-01-20 17:48:00,2.7,-3.7,30.33,West,280,3.0,9.0,74,0.00,,SCT036,0.00,VWS V14.01,2013-01-20 23:48:00,
2013-01-20 17:53:00,2.6,-3.8,30.33,West,276,2.0,9.0,74,0.00,,SCT036,0.00,VWS V14.01,2013-01-20 23:53:00,
2013-01-20 17:58:00,2.5,-3.6,30.33,West,270,3.0,3.0,75,0.00,,SCT036,0.00,VWS V14.01,2013-01-20 23:58:00,
2013-01-20 18:03:00,2.4,-3.7,30.33,WNW,290,2.0,6.0,75,0.00,,SCT036,0.00,VWS V14.01,2013-01-21 00:03:00,
2013-01-20 18:08:00,2.3,-3.8,30.32,WNW,290,3.0,6.0,75,0.00,,SCT110,0.00,VWS V14.01,2013-01-21 00:08:00,
2013-01-20 18:13:00,2.2,-3.6,30.32,West,281,2.0,6.0,76,0.00,,SCT110,0.00,VWS V14.01,2013-01-21 00:13:00,
2013-01-20 18:18:00,2.1,-3.7,30.32,West,281,2.0,6.0,76,0.00,,SCT110,0.00,VWS V14.01,2013-01-21 00:18:00,
2013-01-20 18:23:00,1.9,-3.6,30.32,West,266,2.0,6.0,77,0.00,,SCT110,0.00,VWS V14.01,2013-01-21 00:23:00,
2013-01-20 18:28:00,1.8,-3.7,30.32,West,281,3.0,3.0,77,0.00,,SCT110,0.00,VWS V14.01,2013-01-21 00:28:00,
2013-01-20 18:33:00,1.7,-3.8,30.32,West,279,3.0,4.0,77,0.00,,SCT110,0.00,VWS V14.01,2013-01-21 00:33:00,
2013-01-20 18:38:00,1.7,-3.6,30.32,West,277,2.0,4.0,78,0.00,,SCT110,0.00,VWS V14.01,2013-01-21 00:38:00,
2013-01-20 18:43:00,1.6,-3.7,30.32,West,275,2.0,4.0,78,0.00,,SCT110,0.00,VWS V14.01,2013-01-21 00:43:00,
2013-01-20 18:48:00,1.5,-3.8,30.32,West,267,2.0,4.0,78,0.00,,SCT110,0.00,VWS V14.01,2013-01-21 00:48:00,
2013-01-20 18:53:00,1.3,-4.0,30.32,WSW,250,3.0,4.0,78,0.00,,SCT110,0.00,VWS V14.01,2013-01-21 00:53:00,
2013-01-20 18:58:00,1.2,-4.1,30.32,West,259,3.0,3.0,78,0.00,,SCT110,0.00,VWS V14.01,2013-01-21 00:58:00,
2013-01-20 19:03:00,0.9,-4.1,30.32,WSW,255,3.0,4.0,79,0.00,,SCT110,0.00,VWS V14.01,2013-01-21 01:03:00,
2013-01-20 19:08:00,0.7,-4.3,30.32,West,274,3.0,4.0,79,0.00,,SCT110,0.00,VWS V14.01,2013-01-21 01:08:00,
2013-01-20 19:13:00,0.7,-4.3,30.31,West,276,4.0,4.0,79,0.00,,SCT110,0.00,VWS V14.01,2013-01-21 01:13:00,
2013-01-20 19:18:00,0.7,-4.0,30.31,West,266,2.0,4.0,80,0.00,,SCT110,0.00,VWS V14.01,2013-01-21 01:18:00,
2013-01-20 19:23:00,0.7,-4.0,30.31,West,264,2.0,4.0,80,0.00,,SCT110,0.00,VWS V14.01,2013-01-21 01:23:00,
2013-01-20 19:28:00,0.7,-4.0,30.31,West,266,3.0,3.0,80,0.00,,SCT110,0.00,VWS V14.01,2013-01-21 01:28:00,
2013-01-20 19:33:00,0.6,-4.1,30.31,West,281,3.0,7.0,80,0.00,,BKN110,0.00,VWS V14.01,2013-01-21 01:33:00,
2013-01-20 19:38:00,0.7,-3.8,30.31,West,278,3.0,7.0,81,0.00,,BKN110,0.00,VWS V14.01,2013-01-21 01:38:00,
2013-01-20 19:43:00,0.8,-3.7,30.31,West,280,2.0,7.0,81,0.00,,BKN110,0.00,VWS V14.01,2013-01-21 01:43:00,
2013-01-20 19:48:00,0.8,-3.4,30.31,West,269,5.0,7.0,82,0.00,,OVC031,0.00,VWS V14.01,2013-01-21 01:48:00,
2013-01-20 19:53:00,0.8,-3.4,30.31,WNW,294,8.0,8.0,82,0.00,,OVC031,0.00,VWS V14.01,2013-01-21 01:53:00,
2013-01-20 19:58:00,0.9,-3.5,30.31,West,280,6.0,8.0,81,0.00,,OVC031,0.00,VWS V14.01,2013-01-21 01:58:00,
2013-01-20 20:03:00,0.9,-3.8,30.31,WNW,283,4.0,8.0,80,0.00,,OVC031,0.00,VWS V14.01,2013-01-21 02:03:00,
2013-01-20 20:08:00,0.9,-4.1,30.30,WNW,284,5.0,8.0,79,0.00,,OVC031,0.00,VWS V14.01,2013-01-21 02:08:00,
2013-01-20 20:13:00,0.9,-4.1,30.30,West,267,4.0,8.0,79,0.00,,OVC031,0.00,VWS V14.01,2013-01-21 02:13:00,
2013-01-20 20:18:00,0.8,-4.4,30.30,WNW,287,3.0,8.0,78,0.00,,OVC031,0.00,VWS V14.01,2013-01-21 02:18:00,
2013-01-20 20:23:00,0.8,-4.7,30.31,WNW,284,4.0,8.0,77,0.00,,OVC031,0.00,VWS V14.01,2013-01-21 02:23:00,
2013-01-20 20:28:00,0.7,-4.8,30.31,WNW,295,7.0,7.0,77,0.00,,OVC031,0.00,VWS V14.01,2013-01-21 02:28:00,
2013-01-20 20:33:00,0.7,-5.1,30.31,WNW,300,8.0,8.0,76,0.00,,SCT120,0.00,VWS V14.01,2013-01-21 02:33:00,
2013-01-20 20:38:00,0.7,-5.3,30.30,WNW,302,2.0,11.0,75,0.00,,SCT120,0.00,VWS V14.01,2013-01-21 02:38:00,
2013-01-20 20:43:00,0.6,-5.4,30.30,WNW,298,6.0,11.0,75,0.00,,SCT120,0.00,VWS V14.01,2013-01-21 02:43:00,
2013-01-20 20:48:00,0.5,-5.5,30.30,WNW,290,2.0,11.0,75,0.00,,SCT120,0.00,VWS V14.01,2013-01-21 02:48:00,
2013-01-20 20:53:00,0.3,-5.7,30.30,WNW,286,5.0,11.0,75,0.00,,BKN110,0.00,VWS V14.01,2013-01-21 02:53:00,
2013-01-20 20:58:00,0.2,-5.8,30.30,WNW,286,3.0,6.0,75,0.00,,BKN110,0.00,VWS V14.01,2013-01-21 02:58:00,
2013-01-20 21:03:00,0.1,-6.3,30.30,WNW,285,6.0,7.0,74,0.00,,BKN110,0.00,VWS V14.01,2013-01-21 03:03:00,
2013-01-20 21:08:00,-0.1,-6.7,30.30,WNW,298,5.0,7.0,73,0.00,,BKN110,0.00,VWS V14.01,2013-01-21 03:08:00,
2013-01-20 21:13:00,-0.2,-7.1,30.30,WNW,294,3.0,13.0,72,0.00,,BKN110,0.00,VWS V14.01,2013-01-21 03:13:00,
2013-01-20 21:18:00,-0.3,-7.4,30.30,West,276,6.0,13.0,71,0.00,,BKN110,0.00,VWS V14.01,2013-01-21 03:18:00,
2013-01-20 21:23:00,-0.4,-7.5,30.30,WNW,301,6.0,13.0,71,0.00,,BKN110,0.00,VWS V14.01,2013-01-21 03:23:00,
2013-01-20 21:28:00,-0.5,-7.6,30.30,WNW,295,10.0,11.0,71,0.00,,BKN110,0.00,VWS V14.01,2013-01-21 03:28:00,
2013-01-20 21:34:00,-0.7,-8.1,30.31,WNW,288,3.0,11.0,70,0.00,,SCT110,0.00,VWS V14.01,2013-01-21 03:34:00,
2013-01-20 21:39:00,-0.9,-8.0,30.30,WNW,294,5.0,11.0,71,0.00,,SCT110,0.00,VWS V14.01,2013-01-21 03:39:00,
2013-01-20 21:44:00,-1.0,-8.1,30.30,NW,310,6.0,11.0,71,0.00,,SCT110,0.00,VWS V14.01,2013-01-21 03:44:00,
2013-01-20 21:49:00,-1.1,-8.2,30.30,WNW,297,6.0,11.0,71,0.00,,CLR,0.00,VWS V14.01,2013-01-21 03:49:00,
2013-01-20 21:54:00,-1.2,-8.3,30.30,WNW,287,5.0,13.0,71,0.00,,CLR,0.00,VWS V14.01,2013-01-21 03:54:00,
2013-01-20 21:59:00,-1.4,-8.5,30.30,NW,316,5.0,8.0,71,0.00,,CLR,0.00,VWS V14.01,2013-01-21 03:59:00,
2013-01-20 22:04:00,-1.6,-8.7,30.31,WNW,302,5.0,8.0,71,0.00,,CLR,0.00,VWS V14.01,2013-01-21 04:04:00,
2013-01-20 22:09:00,-1.7,-8.8,30.31,WNW,298,6.0,9.0,71,0.00,,CLR,0.00,VWS V14.01,2013-01-21 04:09:00,
2013-01-20 22:14:00,-1.8,-8.9,30.31,WNW,294,6.0,9.0,71,0.00,,CLR,0.00,VWS V14.01,2013-01-21 04:14:00,
2013-01-20 22:19:00,-2.0,-9.1,30.31,WNW,302,6.0,9.0,71,0.00,,CLR,0.00,VWS V14.01,2013-01-21 04:19:00,
2013-01-20 22:24:00,-2.1,-9.2,30.31,WNW,294,4.0,10.0,71,0.00,,CLR,0.00,VWS V14.01,2013-01-21 04:24:00,
2013-01-20 22:29:00,-2.2,-9.3,30.31,NW,306,6.0,7.0,71,0.00,,CLR,0.00,VWS V14.01,2013-01-21 04:29:00,
2013-01-20 22:34:00,-2.3,-9.4,30.31,WNW,295,4.0,7.0,71,0.00,,SCT110,0.00,VWS V14.01,2013-01-21 04:34:00,
2013-01-20 22:39:00,-2.4,-9.5,30.31,WNW,301,7.0,7.0,71,0.00,,SCT110,0.00,VWS V14.01,2013-01-21 04:39:00,
2013-01-20 22:44:00,-2.5,-9.6,30.31,WNW,298,7.0,9.0,71,0.00,,SCT110,0.00,VWS V14.01,2013-01-21 04:44:00,
2013-01-20 22:49:00,-2.7,-9.8,30.31,WNW,293,4.0,9.0,71,0.00,,CLR,0.00,VWS V14.01,2013-01-21 04:49:00,
2013-01-20 22:54:00,-2.8,-9.9,30.31,WNW,288,5.0,11.0,71,0.00,,CLR,0.00,VWS V14.01,2013-01-21 04:54:00,
2013-01-20 22:59:00,-2.9,-9.9,30.32,WNW,297,7.0,8.0,71,0.00,,CLR,0.00,VWS V14.01,2013-01-21 04:59:00,
2013-01-20 23:03:00,-3.0,-10.1,30.32,NW,307,4.0,9.0,71,0.00,,CLR,0.00,VWS V14.01,2013-01-21 05:03:00,
2013-01-20 23:08:00,-3.1,-10.4,30.32,WNW,298,7.0,10.0,70,0.00,,CLR,0.00,VWS V14.01,2013-01-21 05:08:00,
2013-01-20 23:13:00,-3.2,-10.5,30.32,WNW,295,4.0,10.0,70,0.00,,CLR,0.00,VWS V14.01,2013-01-21 05:13:00,
2013-01-20 23:18:00,-3.3,-10.6,30.32,NW,309,5.0,11.0,70,0.00,,CLR,0.00,VWS V14.01,2013-01-21 05:18:00,
2013-01-20 23:23:00,-3.4,-10.7,30.32,WNW,295,5.0,12.0,70,0.00,,CLR,0.00,VWS V14.01,2013-01-21 05:23:00,
2013-01-20 23:28:00,-3.6,-10.9,30.32,WNW,302,6.0,12.0,70,0.00,,CLR,0.00,VWS V14.01,2013-01-21 05:28:00,
2013-01-20 23:33:00,-3.6,-10.9,30.32,WNW,298,6.0,9.0,70,0.00,,SCT120,0.00,VWS V14.01,2013-01-21 05:33:00,
2013-01-20 23:39:00,-3.8,-11.1,30.32,WNW,298,4.0,10.0,70,0.00,,SCT120,0.00,VWS V14.01,2013-01-21 05:39:00,
2013-01-20 23:44:00,-3.9,-11.2,30.32,WNW,294,5.0,10.0,70,0.00,,SCT120,0.00,VWS V14.01,2013-01-21 05:44:00,
2013-01-20 23:49:00,-4.1,-11.4,30.32,WNW,288,6.0,10.0,70,0.00,,SCT110,0.00,VWS V14.01,2013-01-21 05:49:00,
2013-01-20 23:54:00,-4.2,-11.5,30.32,WNW,290,7.0,10.0,70,0.00,,SCT110,0.00,VWS V14.01,2013-01-21 05:54:00,
2013-01-20 23:59:00,-4.3,-11.6,30.32,WNW,283,5.0,5.0,70,0.00,,SCT110,0.00,VWS V14.01,2013-01-21 05:59:00,